When you browse on this site, cookies collect data to enhance your experience and personalize the content and advertising you see.
Visit our Privacy Policy to learn more. By continuing to use the site, you agree to this use of cookies and data.
  • In Spain
  • List of Countries
  • For 7 days
  • Water Temperature
  • Satellite Maps
  • Weather Map
  • Weather Widgets
  • user-avatar
    Login

    Hourly Weather Booué

    Today, 19 February, Tuesday

    Time Temperature Precipitation Wind Pressure Humidity
    00:00 +27°C° 0.1 mm 1 mps 733 mmHg 87%
    01:00 +26°C° 0.1 mm 1 mps 733 mmHg 89%
    02:00 +26°C° 0.7 mm 1 mps 733 mmHg 90%
    03:00 +25°C° 0.7 mm 1 mps 733 mmHg 92%
    04:00 +25°C° 0.7 mm 1 mps 733 mmHg 94%
    05:00 +25°C° 0 mm 1 mps 733 mmHg 93%
    06:00 +25°C° 0 mm 1 mps 733 mmHg 92%
    07:00 +25°C° 0 mm 1 mps 733 mmHg 91%
    08:00 +28°C° 0 mm 1 mps 733 mmHg 81%
    09:00 +30°C° 0 mm 1 mps 734 mmHg 70%
    10:00 +32°C° 0 mm 1 mps 734 mmHg 60%
    11:00 +34°C° 0.2 mm 2 mps 733 mmHg 57%
    12:00 +35°C° 0.2 mm 2 mps 733 mmHg 53%
    13:00 +36°C° 0.2 mm 2 mps 732 mmHg 50%
    14:00 +35°C° 0.3 mm 1 mps 732 mmHg 52%
    15:00 +34°C° 0.3 mm 1 mps 731 mmHg 55%
    16:00 +33°C° 0.3 mm 1 mps 730 mmHg 57%
    17:00 +31°C° 0.8 mm 1 mps 731 mmHg 67%
    18:00 +29°C° 0.8 mm 1 mps 731 mmHg 76%
    19:00 +27°C° 0.8 mm 1 mps 731 mmHg 86%
    20:00 +27°C° 0.1 mm 1 mps 732 mmHg 87%
    21:00 +27°C° 0.1 mm 1 mps 733 mmHg 88%
    22:00 +26°C° 0.1 mm 1 mps 733 mmHg 89%
    23:00 +26°C° 0.2 mm 1 mps 733 mmHg 90%

    Tomorrow, 20 February, Wednesday

    Time Temperature Precipitation Wind Pressure Humidity
    00:00 +26°C° 0.2 mm 1 mps 733 mmHg 91%
    01:00 +26°C° 0.2 mm 1 mps 733 mmHg 91%
    02:00 +26°C° 0 mm 1 mps 733 mmHg 91%
    03:00 +25°C° 0 mm 1 mps 732 mmHg 91%
    04:00 +25°C° 0 mm 1 mps 732 mmHg 90%
    05:00 +25°C° 0 mm 1 mps 732 mmHg 90%
    06:00 +23°C° 0 mm 0 mps 733 mmHg 90%
    07:00 +23°C° 0 mm 0 mps 733 mmHg 91%
    08:00 +25°C° 0.1 mm 0 mps 734 mmHg 84%
    09:00 +28°C° 0.1 mm 1 mps 734 mmHg 77%
    10:00 +30°C° 0.1 mm 2 mps 735 mmHg 70%
    11:00 +31°C° 0.1 mm 2 mps 734 mmHg 64%
    12:00 +34°C° 0.1 mm 2 mps 734 mmHg 58%
    13:00 +35°C° 0.1 mm 2 mps 733 mmHg 52%
    14:00 +35°C° 0.3 mm 2 mps 732 mmHg 54%
    15:00 +34°C° 0.3 mm 2 mps 732 mmHg 56%
    16:00 +34°C° 0.3 mm 2 mps 731 mmHg 58%
    17:00 +31°C° 0.5 mm 2 mps 732 mmHg 66%
    18:00 +29°C° 0.5 mm 1 mps 732 mmHg 74%
    19:00 +27°C° 0.5 mm 1 mps 733 mmHg 82%
    20:00 +27°C° 0.2 mm 1 mps 733 mmHg 83%
    21:00 +26°C° 0.2 mm 1 mps 734 mmHg 84%
    22:00 +26°C° 0.2 mm 2 mps 735 mmHg 85%
    23:00 +26°C° 0.2 mm 1 mps 735 mmHg 87%

    Day after tomorrow, 21 February, Thursday

    Time Temperature Precipitation Wind Pressure Humidity
    00:00 +25°C° 0.2 mm 1 mps 734 mmHg 89%
    01:00 +25°C° 0.2 mm 1 mps 734 mmHg 90%
    02:00 +25°C° 0.1 mm 1 mps 734 mmHg 91%
    03:00 +25°C° 0.1 mm 1 mps 734 mmHg 91%
    04:00 +25°C° 0.1 mm 1 mps 733 mmHg 91%
    05:00 +25°C° 0 mm 1 mps 734 mmHg 90%
    06:00 +23°C° 0 mm 0 mps 734 mmHg 90%
    07:00 +23°C° 0 mm 0 mps 735 mmHg 89%
    08:00 +25°C° 0 mm 0 mps 736 mmHg 79%
    09:00 +29°C° 0 mm 1 mps 736 mmHg 69%
    10:00 +31°C° 0 mm 1 mps 737 mmHg 60%
    11:00 +32°C° 0 mm 2 mps 736 mmHg 55%
    12:00 +35°C° 0 mm 2 mps 735 mmHg 50%
    13:00 +36°C° 0 mm 2 mps 734 mmHg 44%
    14:00 +36°C° 0 mm 2 mps 734 mmHg 45%
    15:00 +36°C° 0 mm 2 mps 733 mmHg 45%
    16:00 +35°C° 0 mm 1 mps 732 mmHg 45%
    17:00 +33°C° 0.1 mm 1 mps 733 mmHg 52%
    18:00 +31°C° 0.1 mm 1 mps 733 mmHg 60%
    19:00 +29°C° 0.1 mm 1 mps 734 mmHg 67%
    20:00 +29°C° 0.2 mm 1 mps 734 mmHg 70%
    21:00 +28°C° 0.2 mm 2 mps 735 mmHg 73%
    22:00 +27°C° 0.2 mm 2 mps 736 mmHg 76%
    23:00 +27°C° 0 mm 1 mps 736 mmHg 79%

    22 February, Friday

    Time Temperature Precipitation Wind Pressure Humidity
    00:00 +26°C° 0 mm 1 mps 735 mmHg 82%
    01:00 +26°C° 0 mm 1 mps 735 mmHg 85%
    02:00 +26°C° 0 mm 1 mps 735 mmHg 85%
    03:00 +25°C° 0 mm 1 mps 734 mmHg 86%
    04:00 +25°C° 0 mm 1 mps 734 mmHg 86%
    05:00 +25°C° 0 mm 1 mps 734 mmHg 87%
    06:00 +25°C° 0 mm 1 mps 735 mmHg 88%
    07:00 +25°C° 0 mm 1 mps 735 mmHg 88%
    08:00 +27°C° 0 mm 1 mps 736 mmHg 80%
    09:00 +29°C° 0 mm 1 mps 736 mmHg 72%
    10:00 +30°C° 0 mm 1 mps 737 mmHg 64%
    11:00 +32°C° 0 mm 1 mps 736 mmHg 57%
    12:00 +33°C° 0 mm 1 mps 735 mmHg 51%
    13:00 +36°C° 0 mm 2 mps 734 mmHg 44%
    14:00 +35°C° 0 mm 1 mps 733 mmHg 44%
    15:00 +35°C° 0 mm 1 mps 732 mmHg 44%
    16:00 +35°C° 0 mm 1 mps 732 mmHg 43%
    17:00 +34°C° 0 mm 1 mps 732 mmHg 50%
    18:00 +32°C° 0 mm 1 mps 733 mmHg 57%
    19:00 +30°C° 0 mm 1 mps 733 mmHg 65%
    20:00 +29°C° 0.3 mm 1 mps 734 mmHg 70%
    21:00 +28°C° 0.3 mm 1 mps 734 mmHg 76%
    22:00 +27°C° 0.3 mm 1 mps 735 mmHg 81%
    23:00 +27°C° 0.3 mm 1 mps 735 mmHg 83%

    23 February, Saturday

    Time Temperature Precipitation Wind Pressure Humidity
    00:00 +26°C° 0.3 mm 1 mps 734 mmHg 85%
    01:00 +26°C° 0.3 mm 1 mps 734 mmHg 87%
    02:00 +26°C° 0 mm 1 mps 734 mmHg 89%
    03:00 +25°C° 0 mm 1 mps 733 mmHg 91%
    04:00 +25°C° 0 mm 1 mps 733 mmHg 92%
    05:00 +23°C° 0 mm 0 mps 733 mmHg 92%
    06:00 +23°C° 0 mm 0 mps 734 mmHg 92%
    07:00 +23°C° 0 mm 0 mps 734 mmHg 91%
    08:00 +26°C° 0.1 mm 0 mps 735 mmHg 81%
    09:00 +30°C° 0.1 mm 1 mps 735 mmHg 70%
    10:00 +32°C° 0.1 mm 1 mps 736 mmHg 60%
    11:00 +34°C° 0.2 mm 1 mps 735 mmHg 54%
    12:00 +35°C° 0.2 mm 1 mps 734 mmHg 47%
    13:00 +37°C° 0.2 mm 1 mps 733 mmHg 41%
    14:00 +37°C° 0 mm 1 mps 732 mmHg 40%
    15:00 +37°C° 0 mm 1 mps 731 mmHg 39%
    16:00 +37°C° 0 mm 1 mps 730 mmHg 38%
    17:00 +35°C° 0 mm 1 mps 731 mmHg 44%
    18:00 +33°C° 0 mm 1 mps 731 mmHg 50%
    19:00 +31°C° 0 mm 1 mps 731 mmHg 56%
    20:00 +31°C° 0 mm 1 mps 732 mmHg 59%
    21:00 +30°C° 0 mm 1 mps 732 mmHg 63%
    22:00 +30°C° 0 mm 1 mps 733 mmHg 66%
    23:00 +28°C° 0.5 mm 1 mps 733 mmHg 74%

    24 February, Sunday

    Time Temperature Precipitation Wind Pressure Humidity
    00:00 +27°C° 0.5 mm 2 mps 732 mmHg 81%
    01:00 +26°C° 0.5 mm 2 mps 732 mmHg 89%
    02:00 +26°C° 0.3 mm 2 mps 732 mmHg 90%
    03:00 +26°C° 0.3 mm 1 mps 732 mmHg 91%
    04:00 +25°C° 0.3 mm 1 mps 732 mmHg 92%
    05:00 +25°C° 0 mm 1 mps 732 mmHg 92%
    06:00 +25°C° 0 mm 1 mps 733 mmHg 93%
    07:00 +23°C° 0 mm 0 mps 733 mmHg 93%
    08:00 +27°C° 0.2 mm 1 mps 734 mmHg 84%
    09:00 +29°C° 0.2 mm 1 mps 734 mmHg 76%
    10:00 +31°C° 0.2 mm 1 mps 734 mmHg 67%
    11:00 +32°C° 0.8 mm 1 mps 733 mmHg 64%
    12:00 +33°C° 0.8 mm 1 mps 733 mmHg 61%
    13:00 +34°C° 0.8 mm 1 mps 732 mmHg 57%
    14:00 +35°C° 0.3 mm 1 mps 731 mmHg 54%
    15:00 +35°C° 0.3 mm 1 mps 731 mmHg 51%
    16:00 +35°C° 0.3 mm 1 mps 731 mmHg 48%
    17:00 +33°C° 0.8 mm 1 mps 731 mmHg 58%
    18:00 +31°C° 0.8 mm 1 mps 731 mmHg 68%
    19:00 +29°C° 0.8 mm 1 mps 732 mmHg 78%
    20:00 +28°C° 0.9 mm 1 mps 732 mmHg 83%
    21:00 +27°C° 0.9 mm 1 mps 732 mmHg 87%
    22:00 +26°C° 0.9 mm 1 mps 733 mmHg 92%
    23:00 +26°C° 0.1 mm 1 mps 733 mmHg 93%
    Show more